Time,TemperatureF,DewpointF,PressureIn,WindDirection,WindDirectionDegrees,WindSpeedMPH,WindSpeedGustMPH,Humidity,HourlyPrecipIn,Conditions,Clouds,dailyrainin,SoftwareType,DateUTC
2013-07-18 00:00:00,71.4,48.9,30.24,North,-999,0.0,0.0,45,0.00,,,-99.99,FreeWX 2.05,2013-07-17 23:00:00,
2013-07-18 00:10:00,71.1,49.3,30.24,North,-999,0.0,0.0,46,0.00,,,-99.99,FreeWX 2.05,2013-07-17 23:10:00,
2013-07-18 00:16:00,70.9,49.6,30.24,North,-999,0.0,0.0,47,0.00,,,-99.99,FreeWX 2.05,2013-07-17 23:16:00,
2013-07-18 00:21:00,70.9,49.6,30.24,North,-999,0.0,0.0,47,0.00,,,-99.99,FreeWX 2.05,2013-07-17 23:21:00,
2013-07-18 00:31:00,70.3,49.6,30.27,North,-999,0.0,0.0,48,0.00,,,-99.99,FreeWX 2.05,2013-07-17 23:31:00,
2013-07-18 00:36:00,70.0,50.0,30.27,North,-999,0.0,0.0,49,0.00,,,-99.99,FreeWX 2.05,2013-07-17 23:36:00,
2013-07-18 00:46:00,70.0,50.5,30.27,North,-999,0.0,0.0,50,0.00,,,-99.99,FreeWX 2.05,2013-07-17 23:46:00,
2013-07-18 00:56:00,69.8,50.4,30.27,North,-999,0.0,0.0,50,0.00,,,-99.99,FreeWX 2.05,2013-07-17 23:56:00,
2013-07-18 01:01:00,69.8,50.9,30.27,North,-999,0.0,0.0,51,0.00,,,-99.99,FreeWX 2.05,2013-07-18 00:01:00,
2013-07-18 01:11:00,69.8,51.4,30.27,North,-999,0.0,0.0,52,0.00,,,-99.99,FreeWX 2.05,2013-07-18 00:11:00,
2013-07-18 01:16:00,70.0,51.6,30.27,North,-999,0.0,0.0,52,0.00,,,-99.99,FreeWX 2.05,2013-07-18 00:16:00,
2013-07-18 01:21:00,70.0,52.0,30.27,North,-999,0.0,0.0,53,0.00,,,-99.99,FreeWX 2.05,2013-07-18 00:21:00,
2013-07-18 01:26:00,70.0,52.0,30.27,North,-999,0.0,0.0,53,0.00,,,-99.99,FreeWX 2.05,2013-07-18 00:26:00,
2013-07-18 01:31:00,69.8,51.4,30.27,North,-999,0.0,0.0,52,0.00,,,-99.99,FreeWX 2.05,2013-07-18 00:31:00,
2013-07-18 01:36:00,69.4,51.1,30.27,North,-999,0.0,0.0,52,0.00,,,-99.99,FreeWX 2.05,2013-07-18 00:36:00,
2013-07-18 01:41:00,69.1,50.7,30.27,North,-999,0.0,0.0,52,0.00,,,-99.99,FreeWX 2.05,2013-07-18 00:41:00,
2013-07-18 01:46:00,68.7,50.9,30.27,North,-999,0.0,0.0,53,0.00,,,-99.99,FreeWX 2.05,2013-07-18 00:46:00,
2013-07-18 01:51:00,68.7,50.9,30.27,North,-999,0.0,0.0,53,0.00,,,-99.99,FreeWX 2.05,2013-07-18 00:51:00,
2013-07-18 02:01:00,68.4,51.1,30.27,North,-999,0.0,0.0,54,0.00,,,-99.99,FreeWX 2.05,2013-07-18 01:01:00,
2013-07-18 02:06:00,68.2,50.9,30.27,North,-999,0.0,0.0,54,0.00,,,-99.99,FreeWX 2.05,2013-07-18 01:06:00,
2013-07-18 02:16:00,67.6,50.9,30.27,North,-999,0.0,0.0,55,0.00,,,-99.99,FreeWX 2.05,2013-07-18 01:16:00,
2013-07-18 02:21:00,67.5,50.7,30.27,North,-999,0.0,0.0,55,0.00,,,-99.99,FreeWX 2.05,2013-07-18 01:21:00,
2013-07-18 02:26:00,67.3,51.1,30.27,North,-999,0.0,0.0,56,0.00,,,-99.99,FreeWX 2.05,2013-07-18 01:26:00,
2013-07-18 02:31:00,67.1,50.9,30.27,North,-999,0.0,0.0,56,0.00,,,-99.99,FreeWX 2.05,2013-07-18 01:31:00,
2013-07-18 02:41:00,66.9,51.3,30.27,North,-999,0.0,0.0,57,0.00,,,-99.99,FreeWX 2.05,2013-07-18 01:41:00,
2013-07-18 02:46:00,66.9,51.3,30.27,North,-999,0.0,0.0,57,0.00,,,-99.99,FreeWX 2.05,2013-07-18 01:46:00,
2013-07-18 02:56:00,66.7,51.4,30.27,North,-999,0.0,0.0,58,0.00,,,-99.99,FreeWX 2.05,2013-07-18 01:56:00,
2013-07-18 03:01:00,66.7,51.4,30.27,North,-999,0.0,0.0,58,0.00,,,-99.99,FreeWX 2.05,2013-07-18 02:01:00,
2013-07-18 03:06:00,66.6,51.3,30.27,North,-999,0.0,0.0,58,0.00,,,-99.99,FreeWX 2.05,2013-07-18 02:06:00,
2013-07-18 03:11:00,66.6,51.3,30.27,North,-999,0.0,0.0,58,0.00,,,-99.99,FreeWX 2.05,2013-07-18 02:11:00,
2013-07-18 03:16:00,66.7,51.4,30.27,North,-999,0.0,0.0,58,0.00,,,-99.99,FreeWX 2.05,2013-07-18 02:16:00,
2013-07-18 03:26:00,66.9,51.6,30.27,North,-999,0.0,0.0,58,0.00,,,-99.99,FreeWX 2.05,2013-07-18 02:26:00,
2013-07-18 03:31:00,66.9,51.6,30.27,North,-999,0.0,0.0,58,0.00,,,-99.99,FreeWX 2.05,2013-07-18 02:31:00,
2013-07-18 03:41:00,66.6,50.9,30.27,North,-999,0.0,0.0,57,0.00,,,-99.99,FreeWX 2.05,2013-07-18 02:41:00,
2013-07-18 03:51:00,66.0,50.4,30.27,North,-999,0.0,0.0,57,0.00,,,-99.99,FreeWX 2.05,2013-07-18 02:51:00,
2013-07-18 04:01:00,65.8,50.7,30.27,North,-999,0.0,0.0,58,0.00,,,-99.99,FreeWX 2.05,2013-07-18 03:01:00,
2013-07-18 04:06:00,66.0,51.3,30.27,North,-999,0.0,2.7,59,0.00,,,-99.99,FreeWX 2.05,2013-07-18 03:06:00,
2013-07-18 04:16:00,66.4,51.6,30.27,North,-999,0.0,3.1,59,0.00,,,-99.99,FreeWX 2.05,2013-07-18 03:16:00,
2013-07-18 04:26:00,66.4,51.6,30.27,North,-999,0.0,0.0,59,0.00,,,-99.99,FreeWX 2.05,2013-07-18 03:26:00,
2013-07-18 04:31:00,66.0,51.3,30.27,North,-999,0.0,3.1,59,0.00,,,-99.99,FreeWX 2.05,2013-07-18 03:31:00,
2013-07-18 04:41:00,65.5,50.7,30.27,North,-999,0.0,0.0,59,0.00,,,-99.99,FreeWX 2.05,2013-07-18 03:41:00,
2013-07-18 04:46:00,65.5,50.7,30.27,North,-999,0.0,0.0,59,0.00,,,-99.99,FreeWX 2.05,2013-07-18 03:46:00,
2013-07-18 04:56:00,65.1,50.9,30.27,North,-999,0.0,0.0,60,0.00,,,-99.99,FreeWX 2.05,2013-07-18 03:56:00,
2013-07-18 05:01:00,64.9,50.7,30.27,North,-999,0.0,0.0,60,0.00,,,-99.99,FreeWX 2.05,2013-07-18 04:01:00,
2013-07-18 05:06:00,64.9,51.1,30.27,North,-999,0.0,0.0,61,0.00,,,-99.99,FreeWX 2.05,2013-07-18 04:06:00,
2013-07-18 05:11:00,64.9,51.1,30.27,North,-999,0.0,0.0,61,0.00,,,-99.99,FreeWX 2.05,2013-07-18 04:11:00,
2013-07-18 05:16:00,64.9,51.1,30.27,North,-999,0.0,0.0,61,0.00,,,-99.99,FreeWX 2.05,2013-07-18 04:16:00,
2013-07-18 05:21:00,64.9,51.1,30.27,North,-999,0.0,0.0,61,0.00,,,-99.99,FreeWX 2.05,2013-07-18 04:21:00,
2013-07-18 05:31:00,64.6,51.3,30.27,North,-999,0.0,0.0,62,0.00,,,-99.99,FreeWX 2.05,2013-07-18 04:31:00,
2013-07-18 05:36:00,64.4,51.1,30.27,North,-999,0.0,0.0,62,0.00,,,-99.99,FreeWX 2.05,2013-07-18 04:36:00,
2013-07-18 05:41:00,64.6,51.6,30.27,North,-999,0.0,0.0,63,0.00,,,-99.99,FreeWX 2.05,2013-07-18 04:41:00,
2013-07-18 05:51:00,64.8,51.8,30.27,North,-999,0.0,0.0,63,0.00,,,-99.99,FreeWX 2.05,2013-07-18 04:51:00,
2013-07-18 05:56:00,64.9,52.0,30.30,North,-999,0.0,0.0,63,0.00,,,-99.99,FreeWX 2.05,2013-07-18 04:56:00,
2013-07-18 06:01:00,64.9,52.0,30.30,North,-999,0.0,0.0,63,0.00,,,-99.99,FreeWX 2.05,2013-07-18 05:01:00,
2013-07-18 06:06:00,64.8,51.8,30.30,North,-999,0.0,0.0,63,0.00,,,-99.99,FreeWX 2.05,2013-07-18 05:06:00,
2013-07-18 06:16:00,64.8,51.8,30.30,North,-999,0.0,0.0,63,0.00,,,-99.99,FreeWX 2.05,2013-07-18 05:16:00,
2013-07-18 06:21:00,64.8,52.3,30.30,North,-999,0.0,0.0,64,0.00,,,-99.99,FreeWX 2.05,2013-07-18 05:21:00,
2013-07-18 06:31:00,64.9,52.5,30.30,North,-999,0.0,0.0,64,0.00,,,-99.99,FreeWX 2.05,2013-07-18 05:31:00,
2013-07-18 06:36:00,65.1,53.1,30.30,North,-999,0.0,0.0,65,0.00,,,-99.99,FreeWX 2.05,2013-07-18 05:36:00,
2013-07-18 06:46:00,65.7,53.6,30.30,North,-999,0.0,0.0,65,0.00,,,-99.99,FreeWX 2.05,2013-07-18 05:46:00,
2013-07-18 06:56:00,66.0,54.0,30.30,North,-999,0.0,3.1,65,0.00,,,-99.99,FreeWX 2.05,2013-07-18 05:56:00,
2013-07-18 07:06:00,66.4,54.3,30.30,North,-999,0.0,3.6,65,0.00,,,-99.99,FreeWX 2.05,2013-07-18 06:06:00,
2013-07-18 07:11:00,66.6,54.5,30.30,North,-999,0.0,4.0,65,0.00,,,-99.99,FreeWX 2.05,2013-07-18 06:11:00,
2013-07-18 07:21:00,66.9,54.7,30.30,North,-999,0.0,4.9,65,0.00,,,-99.99,FreeWX 2.05,2013-07-18 06:21:00,
2013-07-18 07:26:00,67.1,54.9,30.30,North,-999,0.0,2.7,65,0.00,,,-99.99,FreeWX 2.05,2013-07-18 06:26:00,
2013-07-18 07:36:00,67.8,55.6,30.30,North,-999,0.0,4.0,65,0.00,,,-99.99,FreeWX 2.05,2013-07-18 06:36:00,
2013-07-18 07:41:00,68.2,55.6,30.30,North,-999,0.0,4.0,64,0.00,,,-99.99,FreeWX 2.05,2013-07-18 06:41:00,
2013-07-18 07:46:00,68.7,56.1,30.30,North,-999,0.0,3.1,64,0.00,,,-99.99,FreeWX 2.05,2013-07-18 06:46:00,
2013-07-18 07:51:00,69.8,57.0,30.30,North,-999,0.0,3.1,64,0.00,,,-99.99,FreeWX 2.05,2013-07-18 06:51:00,
2013-07-18 08:01:00,71.8,58.1,30.30,North,-999,0.0,3.6,62,0.00,,,-99.99,FreeWX 2.05,2013-07-18 07:01:00,
2013-07-18 08:06:00,72.3,57.2,30.30,North,-999,0.0,3.6,59,0.00,,,-99.99,FreeWX 2.05,2013-07-18 07:06:00,
2013-07-18 08:16:00,73.4,56.3,30.30,NE,34,1.0,4.5,55,0.00,,,-99.99,FreeWX 2.05,2013-07-18 07:16:00,
2013-07-18 08:21:00,73.8,56.1,30.30,NNE,25,1.0,5.8,54,0.00,,,-99.99,FreeWX 2.05,2013-07-18 07:21:00,
2013-07-18 08:26:00,74.1,54.9,30.30,NNE,31,1.0,5.4,51,0.00,,,-99.99,FreeWX 2.05,2013-07-18 07:26:00,
2013-07-18 08:31:00,74.1,53.8,30.30,ENE,67,1.0,5.8,49,0.00,,,-99.99,FreeWX 2.05,2013-07-18 07:31:00,
2013-07-18 08:41:00,74.3,52.7,30.30,NE,51,2.0,4.9,47,0.00,,,-99.99,FreeWX 2.05,2013-07-18 07:41:00,
2013-07-18 08:46:00,74.5,52.9,30.30,NE,42,1.0,5.4,47,0.00,,,-99.99,FreeWX 2.05,2013-07-18 07:46:00,
2013-07-18 08:51:00,74.8,53.2,30.30,NE,42,1.0,4.9,47,0.00,,,-99.99,FreeWX 2.05,2013-07-18 07:51:00,
2013-07-18 09:01:00,75.4,53.1,30.30,NNE,27,1.0,4.9,46,0.00,,,-99.99,FreeWX 2.05,2013-07-18 08:01:00,
2013-07-18 09:11:00,75.6,52.7,30.30,NNE,24,2.0,7.4,45,0.00,,,-99.99,FreeWX 2.05,2013-07-18 08:11:00,
2013-07-18 09:16:00,75.7,52.9,30.30,NNE,20,2.0,4.9,45,0.00,,,-99.99,FreeWX 2.05,2013-07-18 08:16:00,
2013-07-18 09:26:00,76.3,52.7,30.30,NNE,13,1.0,5.8,44,0.00,,,-99.99,FreeWX 2.05,2013-07-18 08:26:00,
2013-07-18 09:36:00,76.1,52.5,30.30,North,7,2.0,6.3,44,0.00,,,-99.99,FreeWX 2.05,2013-07-18 08:36:00,
2013-07-18 09:46:00,76.3,52.2,30.30,NNE,14,2.0,4.5,43,0.00,,,-99.99,FreeWX 2.05,2013-07-18 08:46:00,
2013-07-18 09:51:00,76.6,52.5,30.30,NNE,25,1.0,4.9,43,0.00,,,-99.99,FreeWX 2.05,2013-07-18 08:51:00,
2013-07-18 10:01:00,77.2,52.3,30.30,ENE,66,1.0,4.5,42,0.00,,,-99.99,FreeWX 2.05,2013-07-18 09:01:00,
2013-07-18 10:06:00,77.5,52.7,30.30,NE,54,1.0,5.4,42,0.00,,,-99.99,FreeWX 2.05,2013-07-18 09:06:00,
2013-07-18 10:11:00,77.9,52.9,30.30,North,5,1.0,4.5,42,0.00,,,-99.99,FreeWX 2.05,2013-07-18 09:11:00,
2013-07-18 10:21:00,78.4,52.2,30.30,North,7,2.0,5.4,40,0.00,,,-99.99,FreeWX 2.05,2013-07-18 09:21:00,
2013-07-18 10:26:00,78.4,50.0,30.30,North,6,2.0,6.9,37,0.00,,,-99.99,FreeWX 2.05,2013-07-18 09:26:00,
2013-07-18 10:36:00,79.0,49.6,30.30,NE,42,1.0,4.9,36,0.00,,,-99.99,FreeWX 2.05,2013-07-18 09:36:00,
2013-07-18 10:41:00,79.2,49.8,30.30,NNE,21,1.0,5.8,36,0.00,,,-99.99,FreeWX 2.05,2013-07-18 09:41:00,
2013-07-18 10:51:00,79.7,48.7,30.30,NE,51,2.0,5.8,34,0.00,,,-99.99,FreeWX 2.05,2013-07-18 09:51:00,
2013-07-18 10:56:00,79.9,48.9,30.30,ENE,70,2.0,6.3,34,0.00,,,-99.99,FreeWX 2.05,2013-07-18 09:56:00,
2013-07-18 11:01:00,80.2,48.6,30.30,NE,54,2.0,5.4,33,0.00,,,-99.99,FreeWX 2.05,2013-07-18 10:01:00,
2013-07-18 11:11:00,81.0,49.1,30.30,NE,45,1.0,6.7,33,0.00,,,-99.99,FreeWX 2.05,2013-07-18 10:11:00,
2013-07-18 11:21:00,81.1,49.3,30.30,NNE,13,2.0,6.3,33,0.00,,,-99.99,FreeWX 2.05,2013-07-18 10:21:00,
2013-07-18 11:26:00,81.3,48.6,30.30,NNE,18,1.0,6.3,32,0.00,,,-99.99,FreeWX 2.05,2013-07-18 10:26:00,
2013-07-18 11:36:00,81.7,48.0,30.30,North,8,2.0,5.4,31,0.00,,,-99.99,FreeWX 2.05,2013-07-18 10:36:00,
2013-07-18 11:41:00,81.9,48.2,30.30,North,4,1.0,5.4,31,0.00,,,-99.99,FreeWX 2.05,2013-07-18 10:41:00,
2013-07-18 11:51:00,82.6,48.9,30.30,NE,44,2.0,5.4,31,0.00,,,-99.99,FreeWX 2.05,2013-07-18 10:51:00,
2013-07-18 11:56:00,83.1,49.3,30.30,North,0,2.0,6.9,31,0.00,,,-99.99,FreeWX 2.05,2013-07-18 10:56:00,
2013-07-18 12:06:00,82.9,48.2,30.30,NE,37,3.0,6.3,30,0.00,,,-99.99,FreeWX 2.05,2013-07-18 11:06:00,
2013-07-18 12:11:00,83.1,48.4,30.30,NNE,31,3.0,6.7,30,0.00,,,-99.99,FreeWX 2.05,2013-07-18 11:11:00,
2013-07-18 12:21:00,83.5,48.7,30.30,NNE,20,2.0,6.3,30,0.00,,,-99.99,FreeWX 2.05,2013-07-18 11:21:00,
2013-07-18 12:26:00,83.8,49.1,30.30,North,351,2.0,6.9,30,0.00,,,-99.99,FreeWX 2.05,2013-07-18 11:26:00,
2013-07-18 12:31:00,84.0,48.4,30.30,North,353,3.0,7.4,29,0.00,,,-99.99,FreeWX 2.05,2013-07-18 11:31:00,
2013-07-18 12:36:00,84.2,48.4,30.30,North,357,3.0,7.8,29,0.00,,,-99.99,FreeWX 2.05,2013-07-18 11:36:00,
2013-07-18 12:46:00,84.9,49.1,30.30,NNE,21,2.0,6.3,29,0.00,,,-99.99,FreeWX 2.05,2013-07-18 11:46:00,
2013-07-18 12:51:00,84.9,49.1,30.30,NE,37,3.0,6.3,29,0.00,,,-99.99,FreeWX 2.05,2013-07-18 11:51:00,
2013-07-18 12:56:00,85.1,49.3,30.27,NNE,24,3.0,7.8,29,0.00,,,-99.99,FreeWX 2.05,2013-07-18 11:56:00,
2013-07-18 13:01:00,85.1,48.4,30.27,NNE,13,3.0,6.9,28,0.00,,,-99.99,FreeWX 2.05,2013-07-18 12:01:00,
2013-07-18 13:11:00,85.5,48.6,30.27,North,3,3.0,7.8,28,0.00,,,-99.99,FreeWX 2.05,2013-07-18 12:11:00,
2013-07-18 13:16:00,85.8,48.9,30.27,North,1,3.0,6.7,28,0.00,,,-99.99,FreeWX 2.05,2013-07-18 12:16:00,
2013-07-18 13:26:00,86.0,49.1,30.27,NE,49,2.0,6.9,28,0.00,,,-99.99,FreeWX 2.05,2013-07-18 12:26:00,
2013-07-18 13:31:00,86.2,49.3,30.27,NE,37,2.0,5.8,28,0.00,,,-99.99,FreeWX 2.05,2013-07-18 12:31:00,
2013-07-18 13:36:00,86.0,49.1,30.27,NE,40,2.0,6.3,28,0.00,,,-99.99,FreeWX 2.05,2013-07-18 12:36:00,
2013-07-18 13:46:00,86.0,48.0,30.27,NNE,26,3.0,6.9,27,0.00,,,-99.99,FreeWX 2.05,2013-07-18 12:46:00,
2013-07-18 13:51:00,86.2,49.3,30.27,North,356,3.0,6.3,28,0.00,,,-99.99,FreeWX 2.05,2013-07-18 12:51:00,
2013-07-18 14:01:00,86.9,47.8,30.27,NNE,14,2.0,8.7,26,0.00,,,-99.99,FreeWX 2.05,2013-07-18 13:01:00,
2013-07-18 14:11:00,86.5,47.5,30.27,North,352,2.0,5.4,26,0.00,,,-99.99,FreeWX 2.05,2013-07-18 13:11:00,
2013-07-18 14:16:00,86.7,48.7,30.27,North,350,2.0,6.7,27,0.00,,,-99.99,FreeWX 2.05,2013-07-18 13:16:00,
2013-07-18 14:26:00,86.2,47.3,30.27,North,4,2.0,7.8,26,0.00,,,-99.99,FreeWX 2.05,2013-07-18 13:26:00,
2013-07-18 14:36:00,86.4,46.4,30.27,NE,34,3.0,7.8,25,0.00,,,-99.99,FreeWX 2.05,2013-07-18 13:36:00,
2013-07-18 14:41:00,86.4,46.4,30.27,NNE,20,3.0,7.4,25,0.00,,,-99.99,FreeWX 2.05,2013-07-18 13:41:00,
2013-07-18 14:46:00,86.4,46.4,30.27,North,351,3.0,7.8,25,0.00,,,-99.99,FreeWX 2.05,2013-07-18 13:46:00,
2013-07-18 14:56:00,86.4,46.4,30.27,NNW,341,3.0,7.4,25,0.00,,,-99.99,FreeWX 2.05,2013-07-18 13:56:00,
2013-07-18 15:06:00,86.7,45.5,30.27,NNE,16,3.0,6.7,24,0.00,,,-99.99,FreeWX 2.05,2013-07-18 14:06:00,
2013-07-18 15:11:00,86.7,45.5,30.27,North,358,4.0,10.5,24,0.00,,,-99.99,FreeWX 2.05,2013-07-18 14:11:00,
2013-07-18 15:21:00,86.7,44.4,30.27,NNE,13,2.0,6.7,23,0.00,,,-99.99,FreeWX 2.05,2013-07-18 14:21:00,
2013-07-18 15:31:00,87.1,44.8,30.27,NNW,347,2.0,6.7,23,0.00,,,-99.99,FreeWX 2.05,2013-07-18 14:31:00,
2013-07-18 15:36:00,87.1,44.8,30.27,North,358,2.0,6.9,23,0.00,,,-99.99,FreeWX 2.05,2013-07-18 14:36:00,
2013-07-18 15:46:00,87.1,43.5,30.27,NNE,16,3.0,6.7,22,0.00,,,-99.99,FreeWX 2.05,2013-07-18 14:46:00,
2013-07-18 15:51:00,86.9,42.3,30.27,NE,35,2.0,5.8,21,0.00,,,-99.99,FreeWX 2.05,2013-07-18 14:51:00,
2013-07-18 15:56:00,86.7,43.3,30.27,NE,48,2.0,5.8,22,0.00,,,-99.99,FreeWX 2.05,2013-07-18 14:56:00,
2013-07-18 16:01:00,86.9,43.5,30.27,NE,35,3.0,8.7,22,0.00,,,-99.99,FreeWX 2.05,2013-07-18 15:01:00,
2013-07-18 16:11:00,86.7,43.3,30.27,North,11,3.0,6.7,22,0.00,,,-99.99,FreeWX 2.05,2013-07-18 15:11:00,
2013-07-18 16:16:00,87.1,43.5,30.27,North,11,2.0,6.7,22,0.00,,,-99.99,FreeWX 2.05,2013-07-18 15:16:00,
2013-07-18 16:26:00,86.9,42.3,30.27,North,356,3.0,8.7,21,0.00,,,-99.99,FreeWX 2.05,2013-07-18 15:26:00,
2013-07-18 16:36:00,87.1,42.4,30.27,North,349,3.0,5.8,21,0.00,,,-99.99,FreeWX 2.05,2013-07-18 15:36:00,
2013-07-18 16:46:00,86.9,42.3,30.24,North,354,3.0,7.4,21,0.00,,,-99.99,FreeWX 2.05,2013-07-18 15:46:00,
2013-07-18 16:56:00,86.5,41.9,30.24,North,356,3.0,6.3,21,0.00,,,-99.99,FreeWX 2.05,2013-07-18 15:56:00,
2013-07-18 17:01:00,86.4,41.7,30.24,North,2,3.0,8.3,21,0.00,,,-99.99,FreeWX 2.05,2013-07-18 16:01:00,
2013-07-18 17:06:00,86.2,42.8,30.24,North,351,3.0,8.7,22,0.00,,,-99.99,FreeWX 2.05,2013-07-18 16:06:00,
2013-07-18 17:16:00,85.6,42.4,30.24,NNW,338,4.0,8.3,22,0.00,,,-99.99,FreeWX 2.05,2013-07-18 16:16:00,
2013-07-18 17:21:00,85.8,42.6,30.24,NNW,338,4.0,11.0,22,0.00,,,-99.99,FreeWX 2.05,2013-07-18 16:21:00,
2013-07-18 17:26:00,85.8,42.6,30.24,North,5,4.0,8.3,22,0.00,,,-99.99,FreeWX 2.05,2013-07-18 16:26:00,
2013-07-18 17:31:00,86.0,42.6,30.24,North,9,3.0,6.3,22,0.00,,,-99.99,FreeWX 2.05,2013-07-18 16:31:00,
2013-07-18 17:36:00,86.2,42.8,30.24,North,353,3.0,8.3,22,0.00,,,-99.99,FreeWX 2.05,2013-07-18 16:36:00,
2013-07-18 17:41:00,86.2,42.8,30.24,North,358,3.0,7.4,22,0.00,,,-99.99,FreeWX 2.05,2013-07-18 16:41:00,
2013-07-18 17:51:00,86.2,42.8,30.24,NNW,327,3.0,5.8,22,0.00,,,-99.99,FreeWX 2.05,2013-07-18 16:51:00,
2013-07-18 17:56:00,86.2,42.8,30.24,NNW,341,3.0,8.7,22,0.00,,,-99.99,FreeWX 2.05,2013-07-18 16:56:00,
2013-07-18 18:01:00,86.2,42.8,30.24,North,352,3.0,10.1,22,0.00,,,-99.99,FreeWX 2.05,2013-07-18 17:01:00,
2013-07-18 18:11:00,85.6,42.4,30.24,North,350,4.0,8.7,22,0.00,,,-99.99,FreeWX 2.05,2013-07-18 17:11:00,
2013-07-18 18:21:00,85.3,42.1,30.24,NE,43,2.0,6.3,22,0.00,,,-99.99,FreeWX 2.05,2013-07-18 17:21:00,
2013-07-18 18:26:00,85.1,41.9,30.24,North,7,3.0,7.4,22,0.00,,,-99.99,FreeWX 2.05,2013-07-18 17:26:00,
2013-07-18 18:36:00,84.9,43.0,30.24,NNE,29,3.0,6.9,23,0.00,,,-99.99,FreeWX 2.05,2013-07-18 17:36:00,
2013-07-18 18:41:00,84.7,42.8,30.24,NNE,13,3.0,7.8,23,0.00,,,-99.99,FreeWX 2.05,2013-07-18 17:41:00,
2013-07-18 18:51:00,84.4,42.4,30.24,North,10,4.0,7.8,23,0.00,,,-99.99,FreeWX 2.05,2013-07-18 17:51:00,
2013-07-18 18:56:00,84.2,43.5,30.24,North,7,3.0,6.7,24,0.00,,,-99.99,FreeWX 2.05,2013-07-18 17:56:00,
2013-07-18 19:06:00,83.8,43.2,30.24,North,9,3.0,7.8,24,0.00,,,-99.99,FreeWX 2.05,2013-07-18 18:06:00,
2013-07-18 19:11:00,83.7,43.0,30.24,North,10,2.0,7.8,24,0.00,,,-99.99,FreeWX 2.05,2013-07-18 18:11:00,
2013-07-18 19:16:00,83.5,43.9,30.24,North,2,3.0,6.3,25,0.00,,,-99.99,FreeWX 2.05,2013-07-18 18:16:00,
2013-07-18 19:26:00,82.9,44.4,30.24,NNE,27,2.0,5.8,26,0.00,,,-99.99,FreeWX 2.05,2013-07-18 18:26:00,
2013-07-18 19:36:00,82.2,45.9,30.24,NE,41,2.0,6.7,28,0.00,,,-99.99,FreeWX 2.05,2013-07-18 18:36:00,
2013-07-18 19:46:00,81.0,48.4,30.24,East,92,2.0,4.5,32,0.00,,,-99.99,FreeWX 2.05,2013-07-18 18:46:00,
2013-07-18 19:51:00,80.6,48.7,30.24,East,85,1.0,5.8,33,0.00,,,-99.99,FreeWX 2.05,2013-07-18 18:51:00,
2013-07-18 19:56:00,79.9,49.8,30.24,East,83,1.0,6.7,35,0.00,,,-99.99,FreeWX 2.05,2013-07-18 18:56:00,
2013-07-18 20:01:00,79.5,50.2,30.24,ENE,78,1.0,5.4,36,0.00,,,-99.99,FreeWX 2.05,2013-07-18 19:01:00,
2013-07-18 20:11:00,78.6,50.2,30.24,ENE,72,1.0,4.5,37,0.00,,,-99.99,FreeWX 2.05,2013-07-18 19:11:00,
2013-07-18 20:21:00,77.9,51.6,30.24,East,88,2.0,6.7,40,0.00,,,-99.99,FreeWX 2.05,2013-07-18 19:21:00,
2013-07-18 20:26:00,77.5,51.3,30.24,East,95,2.0,5.8,40,0.00,,,-99.99,FreeWX 2.05,2013-07-18 19:26:00,
2013-07-18 20:36:00,76.6,51.1,30.24,East,97,2.0,6.3,41,0.00,,,-99.99,FreeWX 2.05,2013-07-18 19:36:00,
2013-07-18 20:41:00,76.1,51.3,30.27,East,95,2.0,6.7,42,0.00,,,-99.99,FreeWX 2.05,2013-07-18 19:41:00,
2013-07-18 20:51:00,75.2,51.1,30.27,East,87,2.0,6.3,43,0.00,,,-99.99,FreeWX 2.05,2013-07-18 19:51:00,
2013-07-18 20:56:00,74.8,51.4,30.27,East,97,1.0,5.8,44,0.00,,,-99.99,FreeWX 2.05,2013-07-18 19:56:00,
2013-07-18 21:01:00,74.7,51.3,30.27,East,97,1.0,4.0,44,0.00,,,-99.99,FreeWX 2.05,2013-07-18 20:01:00,
2013-07-18 21:11:00,74.1,50.7,30.27,East,97,1.0,3.6,44,0.00,,,-99.99,FreeWX 2.05,2013-07-18 20:11:00,
2013-07-18 21:21:00,73.6,50.9,30.27,North,-999,0.0,3.6,45,0.00,,,-99.99,FreeWX 2.05,2013-07-18 20:21:00,
2013-07-18 21:31:00,73.2,50.5,30.27,North,-999,0.0,0.0,45,0.00,,,-99.99,FreeWX 2.05,2013-07-18 20:31:00,
2013-07-18 21:41:00,72.5,50.5,30.27,East,91,1.0,5.4,46,0.00,,,-99.99,FreeWX 2.05,2013-07-18 20:41:00,
2013-07-18 21:51:00,72.1,50.7,30.27,East,92,1.0,4.0,47,0.00,,,-99.99,FreeWX 2.05,2013-07-18 20:51:00,
2013-07-18 21:56:00,72.0,50.5,30.27,North,-999,0.0,4.5,47,0.00,,,-99.99,FreeWX 2.05,2013-07-18 20:56:00,
2013-07-18 22:06:00,71.6,50.9,30.27,North,-999,0.0,3.1,48,0.00,,,-99.99,FreeWX 2.05,2013-07-18 21:06:00,
2013-07-18 22:16:00,71.2,50.0,30.30,North,-999,0.0,0.0,47,0.00,,,-99.99,FreeWX 2.05,2013-07-18 21:16:00,
2013-07-18 22:26:00,70.9,50.2,30.30,North,-999,0.0,4.5,48,0.00,,,-99.99,FreeWX 2.05,2013-07-18 21:26:00,
2013-07-18 22:36:00,70.5,50.4,30.30,North,-999,0.0,3.6,49,0.00,,,-99.99,FreeWX 2.05,2013-07-18 21:36:00,
2013-07-18 22:46:00,70.3,50.2,30.30,North,-999,0.0,0.0,49,0.00,,,-99.99,FreeWX 2.05,2013-07-18 21:46:00,
2013-07-18 22:56:00,70.0,50.0,30.30,North,-999,0.0,3.6,49,0.00,,,-99.99,FreeWX 2.05,2013-07-18 21:56:00,
2013-07-18 23:01:00,69.8,49.8,30.30,North,-999,0.0,0.0,49,0.00,,,-99.99,FreeWX 2.05,2013-07-18 22:01:00,
2013-07-18 23:06:00,69.6,49.6,30.30,North,-999,0.0,2.7,49,0.00,,,-99.99,FreeWX 2.05,2013-07-18 22:06:00,
2013-07-18 23:11:00,69.4,50.0,30.30,North,-999,0.0,4.9,50,0.00,,,-99.99,FreeWX 2.05,2013-07-18 22:11:00,
2013-07-18 23:16:00,69.4,50.0,30.30,North,-999,0.0,3.6,50,0.00,,,-99.99,FreeWX 2.05,2013-07-18 22:16:00,
2013-07-18 23:21:00,69.3,49.8,30.30,North,-999,0.0,4.5,50,0.00,,,-99.99,FreeWX 2.05,2013-07-18 22:21:00,
2013-07-18 23:26:00,69.1,49.6,30.30,North,-999,0.0,3.6,50,0.00,,,-99.99,FreeWX 2.05,2013-07-18 22:26:00,
2013-07-18 23:36:00,68.9,50.0,30.30,North,-999,0.0,0.0,51,0.00,,,-99.99,FreeWX 2.05,2013-07-18 22:36:00,
2013-07-18 23:46:00,68.5,49.6,30.30,North,-999,0.0,0.0,51,0.00,,,-99.99,FreeWX 2.05,2013-07-18 22:46:00,
2013-07-18 23:51:00,68.4,49.5,30.30,North,-999,0.0,5.4,51,0.00,,,-99.99,FreeWX 2.05,2013-07-18 22:51:00,